SL-8 DEB, 1335

Orbit data source: Space-Track

SL-8 DEB, 1335 is space debris in LEO originally from a launch on Mon, 15 Mar 1965 UTC launched from the Tyuratam Missile And Space Complex (TTMTR). Debris objects in space refer to the collection of defunct objects orbiting the Earth. Examples of debris include non-operational satellites, rocket bodies, and fragments generated from explosions, collisions, or faulty payload assembly.

Loading next visibility...
Identifier
1335, 1965-020E
Orbit
LEO
Country
Flag of CISCIS
Related business
Manufacturer
Unknown
Mission
Spacecraft
Bus & Motor
Unknown
Mass
Unknown
Launch date (UTC)
1965-03-15 (61 years ago)
Launch vehicle
Unknown
Launch site
Tyuratam Missile And Space Complex (TTMTR)
Object type
Payload
Rocket body
Debris
Shape & HBR
Unknown shape, 0.1 m
Radar Cross Section
Medium (>0.1 m² and <1 m²)

Expand to show TLE details & history
Last TLE update: 19 hours ago

TLE from 19 hours ago
0 SL-8 DEB
1 01335U 65020E   26236.59124454  .00000431  00000-0  17055-3 0  9997
2 01335  56.0752  86.7237 0521776 264.6246  89.5016 13.87895926 19489
Epoch: 2026-08-24T14:11Z
TLE epoch observation values (Epoch: 2026-08-24T14:11:23.528Z)
Latitude
0.00003°
Longitude
-98.99506°
Altitude
953.716 km
Speed
7.367 km/s
True Right ascension
05h 46m 53s
True Declination
0° 00' 00"
Sunlit
Object was in daylight at epoch
Visualization orbit readout
Latitude
Unknown
Longitude
Unknown
Altitude
Unknown
Speed
Unknown
Apparent Right ascension
Unknown
Apparent Declination
Unknown
Sunlit
N/A
Visualization observer readout
Local Sidereal Time
00:13:38
Azimuth
Unknown
Elevation
Unknown
Doppler factor
Unknown
Orbital elements
Apogee altitude
1,317.445 km
Perigee altitude
554.195 km
Semi-major axis
7,313.957 km
Eccentricity
0.05218
Inclination
56.0752°
RAAN
86.7237°
Arg. of periapsis
264.6246°
True anomaly
95.47305°
Mean anomaly
89.5016°
Eccentric anomaly
92.48834°
Mean motion
3.46988 °/min
Orbital period
103.75 mins
BSTAR
0.00017055
Loading maneuver chart data...
Computing Atmospheric mass density...
Loading historical data...
Loading historical data...
Loading historical data...
Loading historical data...
Loading historical data...
Loading historical data...
Loading historical data...

Documentation

Showing up to 5 results
|